Volver al catálogo

STARLINK-33951

ActivoComunicacionesVLEO
NORAD 63803·PAYLOAD·🇺🇸 United States

Lanzado May 2, 2025 desde Cape Canaveral Space Force Station

Loading…

Próximos Pases (próximas 24 horas)

TLE

ActualizadoSource: CelesTrak SupGP

Época: Sep 14, 2026, 21:23 UTC

1 63803C 25091AD  26257.89145833  .00046464  00000+0  16831-2 0  2571
2 63803  43.0035  63.7761 0001429 272.4116 347.9541 15.27551832    19

Sigue STARLINK-33951 en tiempo real con AllMySat

Download on the App Store